Home > Weather > Binningen > Past weeks

Flag for Switzerland Past Weather in Binningen, Basel-Land, Switzerland — Yesterday and Last 2 Weeks

Now
74 °F

Partly sunny.


Feels Like: 77 °F
Forecast: 56 / 74 °F
Wind: 6 mph from West

Location: Bale-Mulhouse

Current Time: Jun 27, 2016 at 5:01:13 PM

Latest Report: Jun 27, 2016 at 4:00 PM


Visibility: 25 mi

Pressure: 30.13 "Hg

Humidity: 45%

Dew Point: 52 °F

Location of BinningenLocation

Past Weather in Binningen — Graph

°F

Binningen Temperature Yesterday

Maximum temperature yesterday: 72 °F (at 2:00 PM)
Minimum temperature yesterday: 53 °F (at 6:00 AM)
Average temperature yesterday: 63 °F

High & Low Weather Summary for the Past Weeks

 TemperatureHumidityPressure
High93 °F (Jun 23, 5:00 PM)100% (Jun 20, 7:00 AM)30.29 "Hg (Jun 20, 7:00 AM)
Low47 °F (Jun 20, 6:00 AM)42% (Jun 23, 4:00 PM)29.60 "Hg (Jun 15, 7:00 PM)
Average64 °F78%29.98 "Hg
* Reported Jun 12 3:00 PM — Jun 27 3:00 PM, Binningen, Weather by CustomWeather, © 2016

Note: Actual official high and low records may vary slightly from our data, if they occured in-between our weather recording intervals... More about our weather records

Advertising

Binningen Weather History for the Previous 24 Hours

Scroll right to see more
 ConditionsComfort  
Time TempWeatherWind HumidityBarometerVisibility
3:00 PM
Mon, Jun 27
73 °FScattered clouds.9 mph43%30.14 "Hg25 mi
2:00 PM72 °FScattered clouds.9 mph46%30.15 "Hg25 mi
1:00 PM71 °FScattered clouds.6 mph43%30.16 "Hg25 mi
12:00 PM69 °FScattered clouds.3 mph52%30.17 "Hg25 mi
11:00 AM68 °FPassing clouds.2 mph53%30.19 "Hg25 mi
10:00 AM66 °FScattered clouds.3 mph60%30.20 "Hg25 mi
9:00 AM63 °FScattered clouds.2 mph66%30.20 "Hg25 mi
8:00 AM59 °FScattered clouds.1 mph83%30.20 "Hg25 mi
7:00 AM56 °FScattered clouds.3 mph90%30.19 "Hg19 mi
6:00 AM52 °FScattered clouds.No wind94%30.20 "Hg19 mi
5:00 AM53 °FPassing clouds.3 mph91%30.20 "Hg37 mi
4:00 AM55 °FCool.2 mph87%30.18 "Hg34 mi
3:00 AM57 °FCool.1 mph81%30.17 "Hg28 mi
2:00 AM57 °FPassing clouds.6 mph84%30.17 "Hg34 mi
1:00 AM58 °FOvercast.6 mph83%30.17 "Hg34 mi
12:00 AM59 °FPassing clouds.6 mph80%30.16 "Hg16 mi
11:00 PM
Sun, Jun 26
62 °FOvercast.5 mph73%30.14 "Hg16 mi
10:00 PM64 °FOvercast.3 mph64%30.12 "Hg16 mi
9:00 PM65 °FOvercast.8 mph60%30.09 "Hg19 mi
8:00 PM68 °FOvercast.10 mph52%30.08 "Hg19 mi
7:00 PM70 °FPartly sunny.10 mph50%30.07 "Hg19 mi
6:00 PM69 °FPartly sunny.12 mph53%30.07 "Hg19 mi
5:00 PM71 °FScattered clouds.9 mph49%30.06 "Hg19 mi
Weather by CustomWeather, © 2016

See weather overviewHow to use our weather pages